When you browse on this site, cookies collect data to enhance your experience and personalize the content and advertising you see.
Visit our Privacy Policy to learn more. By continuing to use the site, you agree to this use of cookies and data.

Hourly Weather Darwin

Today, 6 August, Thursday

Time Temperature Precipitation Wind Pressure Humidity
00:00 +23°C° 0 mm 4 mps 758 mmHg 91%
01:00 +22°C° 0 mm 3 mps 757 mmHg 91%
02:00 +22°C° 0 mm 3 mps 757 mmHg 92%
03:00 +22°C° 0 mm 3 mps 757 mmHg 92%
04:00 +22°C° 0 mm 3 mps 757 mmHg 92%
05:00 +23°C° 0 mm 2 mps 757 mmHg 93%
06:00 +21°C° 0 mm 2 mps 758 mmHg 93%
07:00 +24°C° 0 mm 2 mps 758 mmHg 86%
08:00 +26°C° 0 mm 3 mps 759 mmHg 78%
09:00 +28°C° 0 mm 3 mps 759 mmHg 71%
10:00 +28°C° 0.1 mm 3 mps 759 mmHg 67%
11:00 +29°C° 0.1 mm 4 mps 758 mmHg 64%
12:00 +30°C° 0.1 mm 4 mps 758 mmHg 61%
13:00 +30°C° 0.1 mm 5 mps 757 mmHg 59%
14:00 +30°C° 0.1 mm 5 mps 757 mmHg 58%
15:00 +30°C° 0.1 mm 5 mps 756 mmHg 56%
16:00 +30°C° 0 mm 5 mps 756 mmHg 59%
17:00 +29°C° 0 mm 4 mps 756 mmHg 61%
18:00 +28°C° 0 mm 4 mps 756 mmHg 63%
19:00 +26°C° 0 mm 4 mps 757 mmHg 72%
20:00 +25°C° 0 mm 4 mps 758 mmHg 80%
21:00 +22°C° 0 mm 4 mps 758 mmHg 88%
22:00 +22°C° 0 mm 3 mps 758 mmHg 89%
23:00 +22°C° 0 mm 3 mps 758 mmHg 91%

Tomorrow, 7 August, Friday

Time Temperature Precipitation Wind Pressure Humidity
00:00 +21°C° 0 mm 3 mps 758 mmHg 92%
01:00 +21°C° 0 mm 3 mps 758 mmHg 92%
02:00 +21°C° 0 mm 2 mps 758 mmHg 93%
03:00 +21°C° 0 mm 2 mps 757 mmHg 93%
04:00 +20°C° 0 mm 2 mps 758 mmHg 94%
05:00 +20°C° 0 mm 3 mps 758 mmHg 95%
06:00 +20°C° 0 mm 3 mps 758 mmHg 95%
07:00 +22°C° 0 mm 3 mps 758 mmHg 84%
08:00 +25°C° 0 mm 4 mps 759 mmHg 72%
09:00 +27°C° 0 mm 4 mps 759 mmHg 61%
10:00 +29°C° 0 mm 4 mps 759 mmHg 48%
11:00 +31°C° 0 mm 3 mps 758 mmHg 36%
12:00 +34°C° 0 mm 2 mps 758 mmHg 23%
13:00 +35°C° 0 mm 3 mps 757 mmHg 22%
14:00 +36°C° 0 mm 3 mps 757 mmHg 21%
15:00 +37°C° 0 mm 4 mps 756 mmHg 20%
16:00 +34°C° 0 mm 4 mps 756 mmHg 30%
17:00 +30°C° 0 mm 4 mps 756 mmHg 40%
18:00 +27°C° 0 mm 4 mps 756 mmHg 50%
19:00 +26°C° 0 mm 4 mps 757 mmHg 54%
20:00 +24°C° 0 mm 3 mps 758 mmHg 58%
21:00 +22°C° 0 mm 3 mps 758 mmHg 62%
22:00 +21°C° 0 mm 3 mps 758 mmHg 62%
23:00 +20°C° 0 mm 3 mps 758 mmHg 63%

Day after tomorrow, 8 August, Saturday

Time Temperature Precipitation Wind Pressure Humidity
00:00 +20°C° 0 mm 3 mps 759 mmHg 63%
01:00 +19°C° 0 mm 3 mps 758 mmHg 61%
02:00 +18°C° 0 mm 3 mps 758 mmHg 60%
03:00 +18°C° 0 mm 3 mps 758 mmHg 58%
04:00 +18°C° 0 mm 3 mps 758 mmHg 51%
05:00 +17°C° 0 mm 3 mps 758 mmHg 44%
06:00 +17°C° 0 mm 3 mps 759 mmHg 37%
07:00 +20°C° 0 mm 4 mps 759 mmHg 32%
08:00 +23°C° 0 mm 5 mps 760 mmHg 27%
09:00 +27°C° 0 mm 5 mps 760 mmHg 23%
10:00 +30°C° 0 mm 4 mps 760 mmHg 23%
11:00 +33°C° 0 mm 4 mps 759 mmHg 22%
12:00 +36°C° 0 mm 3 mps 759 mmHg 22%
13:00 +36°C° 0 mm 3 mps 758 mmHg 24%
14:00 +36°C° 0 mm 4 mps 758 mmHg 26%
15:00 +36°C° 0 mm 4 mps 757 mmHg 27%
16:00 +34°C° 0 mm 4 mps 757 mmHg 33%
17:00 +32°C° 0 mm 4 mps 757 mmHg 39%
18:00 +29°C° 0 mm 3 mps 757 mmHg 45%
19:00 +27°C° 0 mm 3 mps 758 mmHg 51%
20:00 +26°C° 0 mm 3 mps 759 mmHg 57%
21:00 +24°C° 0 mm 3 mps 759 mmHg 63%
22:00 +22°C° 0 mm 3 mps 759 mmHg 68%
23:00 +21°C° 0 mm 2 mps 759 mmHg 73%

9 August, Sunday

Time Temperature Precipitation Wind Pressure Humidity
00:00 +21°C° 0 mm 1 mps 759 mmHg 78%
01:00 +21°C° 0 mm 1 mps 759 mmHg 80%
02:00 +21°C° 0 mm 1 mps 759 mmHg 82%
03:00 +21°C° 0 mm 1 mps 759 mmHg 84%
04:00 +21°C° 0 mm 1 mps 759 mmHg 84%
05:00 +19°C° 0 mm 2 mps 759 mmHg 84%
06:00 +19°C° 0 mm 3 mps 759 mmHg 84%
07:00 +22°C° 0 mm 3 mps 760 mmHg 74%
08:00 +26°C° 0 mm 3 mps 760 mmHg 63%
09:00 +29°C° 0 mm 3 mps 761 mmHg 53%
10:00 +31°C° 0 mm 3 mps 760 mmHg 48%
11:00 +34°C° 0 mm 4 mps 760 mmHg 43%
12:00 +36°C° 0 mm 4 mps 759 mmHg 38%
13:00 +36°C° 0 mm 4 mps 759 mmHg 40%
14:00 +35°C° 0 mm 5 mps 758 mmHg 42%
15:00 +35°C° 0 mm 5 mps 757 mmHg 44%
16:00 +34°C° 0 mm 4 mps 757 mmHg 48%
17:00 +32°C° 0 mm 4 mps 758 mmHg 52%
18:00 +30°C° 0 mm 3 mps 758 mmHg 56%
19:00 +28°C° 0 mm 3 mps 758 mmHg 64%
20:00 +27°C° 0 mm 3 mps 759 mmHg 72%
21:00 +25°C° 0 mm 3 mps 759 mmHg 80%
22:00 +25°C° 0 mm 2 mps 760 mmHg 84%
23:00 +24°C° 0 mm 2 mps 760 mmHg 88%

10 August, Monday

Time Temperature Precipitation Wind Pressure Humidity
00:00 +24°C° 0 mm 1 mps 760 mmHg 92%
01:00 +24°C° 0 mm 1 mps 760 mmHg 92%
02:00 +23°C° 0 mm 2 mps 760 mmHg 93%
03:00 +23°C° 0 mm 2 mps 760 mmHg 93%
04:00 +23°C° 0 mm 2 mps 760 mmHg 93%
05:00 +23°C° 0 mm 2 mps 760 mmHg 93%
06:00 +23°C° 0 mm 2 mps 760 mmHg 94%
07:00 +25°C° 0 mm 2 mps 760 mmHg 80%
08:00 +27°C° 0 mm 2 mps 760 mmHg 67%
09:00 +30°C° 0 mm 3 mps 761 mmHg 54%
10:00 +33°C° 0 mm 3 mps 760 mmHg 47%
11:00 +35°C° 0 mm 3 mps 760 mmHg 40%
12:00 +37°C° 0 mm 3 mps 759 mmHg 33%
13:00 +37°C° 0 mm 3 mps 758 mmHg 31%
14:00 +37°C° 0 mm 4 mps 758 mmHg 29%
15:00 +38°C° 0 mm 4 mps 757 mmHg 27%
16:00 +35°C° 0 mm 4 mps 757 mmHg 32%
17:00 +33°C° 0 mm 3 mps 757 mmHg 37%
18:00 +29°C° 0 mm 3 mps 758 mmHg 41%
19:00 +27°C° 0 mm 3 mps 758 mmHg 48%
20:00 +26°C° 0 mm 3 mps 759 mmHg 54%
21:00 +24°C° 0 mm 3 mps 760 mmHg 60%
22:00 +23°C° 0 mm 2 mps 760 mmHg 65%
23:00 +23°C° 0 mm 2 mps 760 mmHg 70%

11 August, Tuesday

Time Temperature Precipitation Wind Pressure Humidity
00:00 +22°C° 0 mm 1 mps 760 mmHg 75%
01:00 +22°C° 0 mm 1 mps 760 mmHg 77%
02:00 +21°C° 0 mm 1 mps 760 mmHg 79%
03:00 +20°C° 0 mm 2 mps 759 mmHg 81%
04:00 +20°C° 0 mm 2 mps 760 mmHg 83%
05:00 +20°C° 0 mm 2 mps 760 mmHg 85%
06:00 +20°C° 0 mm 2 mps 760 mmHg 87%
07:00 +24°C° 0 mm 2 mps 760 mmHg 77%
08:00 +27°C° 0 mm 2 mps 761 mmHg 66%
09:00 +30°C° 0 mm 2 mps 761 mmHg 56%
10:00 +32°C° 0 mm 2 mps 761 mmHg 47%
11:00 +36°C° 0 mm 2 mps 760 mmHg 39%
12:00 +38°C° 0 mm 2 mps 760 mmHg 31%
13:00 +37°C° 0 mm 2 mps 759 mmHg 34%
14:00 +36°C° 0 mm 3 mps 758 mmHg 37%
15:00 +35°C° 0 mm 4 mps 757 mmHg 41%
16:00 +33°C° 0 mm 4 mps 757 mmHg 48%
17:00 +30°C° 0 mm 4 mps 758 mmHg 56%
18:00 +28°C° 0 mm 4 mps 758 mmHg 64%
19:00 +27°C° 0 mm 4 mps 758 mmHg 71%
20:00 +26°C° 0 mm 4 mps 759 mmHg 78%
21:00 +25°C° 0 mm 4 mps 760 mmHg 84%
22:00 +24°C° 0 mm 3 mps 760 mmHg 87%
23:00 +24°C° 0 mm 2 mps 760 mmHg 90%
Show more